KRUTKORC

Guest
Details From KRUT - Rutland State
To KORC - Orange City Muni
Flight Number -
Tags Routegen
Created
Modified
Stats Distance 1,048 nm / 1,941 km
Max Altitude 0 ft / 0 m
Waypoints 8
Social Downloads 1
Likes 0
Share VATSIM

Download

Looking for another format? Having issues loading an existing format? Contact us
Advertisement - Login to hide

Notes

None

Route

KRUT +43.38_-072.94 +43.38_-073.15 ADVIV 10030 17337 +42.57_-095.91 KORC

ID Type Via Altitude Latitude Longitude Leg Dist Tot Dist Heading (true) Name
O KRUT APT - 0 ft / 0 m 43.52488˚ -72.94948˚ - 0 nm - -
+43.38_-072.94 DME - 0 ft / 0 m 43.38020˚ -72.94428˚ 8 nm 8 nm 179° / 179° -
+43.38_-073.15 DME - 0 ft / 0 m 43.37624˚ -73.14595˚ 8 nm 17 nm 269° / 268° -
ADVIV FIX - 0 ft / 0 m 44.17113˚ -77.40850˚ 190 nm 208 nm 286° / 283° -
10030 FIX - 0 ft / 0 m 44.22183˚ -82.25200˚ 208 nm 416 nm 273° / 269° -
17337 FIX - 0 ft / 0 m 43.56753˚ -86.39560˚ 183 nm 600 nm 259° / 256° -
+42.57_-095.91 DME - 0 ft / 0 m 42.56549˚ -95.90636˚ 421 nm 1021 nm 265° / 259° -
O KORC APT - 0 ft / 0 m 42.98464˚ -96.06071˚ 26 nm 1047 nm 345° / 345° -

Altitude Profile

Advertisement - Login to hide

Weather


0- 5 10 15 20 25 30 35+ Temperature / ° C

Clouds and Precipitation
Forecast for 2018-05-27 00:00 UTC. Updated 5 hours ago

Ground ~20,000 ft ~40,000 ft Winds

KRUT

Details ICAO KRUT (RUT)
Name RUTLAND STATE
Region United States
Timezone America/New_York (UTC-4.0)
Stats Elevation 787 ft / 240 m (AMSL)
Location 43.529381° -72.949582°
Runways 2
Magnetic Variation 14.110° W

METAR

KRUT 270356Z AUTO 14004KT 10SM OVC050 18/16 A2998 RMK AO2 SLP161 T01830161 $

Decode

TAF

KRUT 262327Z 2700/2724 33004KT P6SM BKN100 FM270600 12010KT P6SM BKN050 FM271400 13012G22KT P6SM BKN035

Decode

Departure Runways

ID Width Length Bearing (true) Bearing (mag) Surface Threshold Offset Overrun Length
01 100 ft / 30 m 5,005 ft / 1,526 m 358.50° 12.61° Asphalt 0 ft / 0 m 0 ft / 0 m
13 75 ft / 23 m 3,164 ft / 965 m 118.72° 132.83° Asphalt 0 ft / 0 m 0 ft / 0 m
19 100 ft / 30 m 5,005 ft / 1,526 m 178.50° 192.61° Asphalt 0 ft / 0 m 0 ft / 0 m
31 75 ft / 23 m 3,164 ft / 965 m 298.72° 312.83° Asphalt 0 ft / 0 m 0 ft / 0 m

KORC

Details ICAO KORC
Name ORANGE CITY MUNI
Region United States
Timezone America/Chicago (UTC-5.0)
Stats Elevation 1,414 ft / 431 m (AMSL)
Location 42.990264° -96.062797°
Runways 1
Magnetic Variation 2.531° E

METAR

KORC 270415Z AUTO 00000KT 10SM CLR 29/11 A2979 RMK AO2

Decode

TAF

Not found

Destination Runways

ID Width Length Bearing (true) Bearing (mag) Surface Threshold Offset Overrun Length
16 60 ft / 18 m 4,254 ft / 1,297 m 164.82° 162.29° Concrete 0 ft / 0 m 0 ft / 0 m
34 60 ft / 18 m 4,254 ft / 1,297 m 344.82° 342.29° Concrete 0 ft / 0 m 0 ft / 0 m